K0JSC-13 Weather Reports


time (UTC)temp
C
wind
direction
speed
KPH
gust
KPH
rain 1hr
cm
rain 24hr
cm
rain mn
cm
humidity
%
barometer
mb
20260906214503 32 145 9.7 20.9 0.00 0.00 0.00 29 985.4
20260906213604 32 146 9.7 20.9 0.00 0.00 0.00 29 985.5
20260906212703 32 137 12.9 25.7 0.00 0.00 0.00 31 985.6
20260906212018 32 126 12.9 25.7 0.00 0.00 0.00 30 985.7
20260906210903 32 117 8.0 19.3 0.00 0.00 0.00 31 985.8
20260906210003 32 133 12.9 25.7 0.00 0.00 0.00 31 985.9
20260906205403 32 131 11.3 29.0 0.00 0.00 0.00 32 986.0
20260906204503 32 131 11.3 24.1 0.00 0.00 0.00 30 986.2
20260906203603 31 136 14.5 24.1 0.00 0.00 0.00 32 986.3
20260906202704 31 142 11.3 25.7 0.00 0.00 0.00 31 986.3
20260906201803 31 139 12.9 22.5 0.00 0.00 0.00 33 986.5
20260906200903 31 144 11.3 20.9 0.00 0.00 0.00 31 986.6
20260906200003 31 160 9.7 20.9 0.00 0.00 0.00 31 986.8
20260906195618 31 162 9.7 20.9 0.00 0.00 0.00 32 986.8
20260906194503 31 151 8.0 16.1 0.00 0.00 0.00 33 987.0
20260906193603 31 153 8.0 22.5 0.00 0.00 0.00 32 987.1
20260906192918 31 159 8.0 17.7 0.00 0.00 0.00 32 987.1
20260906191804 31 160 8.0 16.1 0.00 0.00 0.00 34 987.3
20260906190903 30 159 9.7 19.3 0.00 0.00 0.00 31 987.6
20260906190003 30 158 6.4 17.7 0.00 0.00 0.00 34 987.8
20260906185403 30 152 9.7 17.7 0.00 0.00 0.00 33 987.9
20260906184503 30 151 9.7 19.3 0.00 0.00 0.00 33 988.0
20260906183603 30 153 9.7 19.3 0.00 0.00 0.00 34 988.2
20260906182703 30 155 9.7 19.3 0.00 0.00 0.00 35 988.4
20260906181803 30 150 9.7 19.3 0.00 0.00 0.00 35 988.6
20260906180904 29 161 6.4 16.1 0.00 0.00 0.00 38 988.7
20260906180003 29 172 9.7 17.7 0.00 0.00 0.00 39 989.1
20260906175403 29 155 6.4 14.5 0.00 0.00 0.00 38 989.2
20260906174503 29 150 8.0 14.5 0.00 0.00 0.00 39 989.4
20260906173603 28 130 6.4 14.5 0.00 0.00 0.00 37 989.6
20260906172703 28 148 6.4 14.5 0.00 0.00 0.00 38 989.9
20260906171803 28 178 6.4 14.5 0.00 0.00 0.00 37 990.0
20260906170903 28 151 8.0 14.5 0.00 0.00 0.00 38 990.1
20260906170004 28 144 9.7 17.7 0.00 0.00 0.00 37 990.2
20260906165403 28 143 9.7 17.7 0.00 0.00 0.00 38 990.2
20260906164503 28 137 9.7 17.7 0.00 0.00 0.00 39 990.2
20260906163603 28 119 8.0 16.1 0.00 0.00 0.00 38 990.2
20260906162703 28 124 8.0 14.5 0.00 0.00 0.00 38 990.2
20260906161803 28 108 8.0 16.1 0.00 0.00 0.00 36 990.3
20260906160903 28 101 6.4 14.5 0.00 0.00 0.00 38 990.2
20260906160216 28 147 6.4 11.3 0.00 0.00 0.00 37 990.3
20260906155404 27 143 4.8 11.3 0.00 0.00 0.00 37 990.2
20260906154503 27 141 4.8 11.3 0.00 0.00 0.00 36 990.3
20260906153817 27 129 3.2 8.0 0.00 0.00 0.00 37 990.2
20260906152703 26 320 1.6 6.4 0.00 0.00 0.00 37 990.1
20260906151803 26 359 0.0 3.2 0.00 0.00 0.00 37 990.1
20260906151117 26 330 0.0 3.2 0.00 0.00 0.00 40 990.2
20260906150003 25 311 1.6 3.2 0.00 0.00 0.00 41 990.4
20260906145403 25 311 1.6 4.8 0.00 0.00 0.00 43 990.3
20260906144717 25 310 1.6 6.4 0.00 0.00 0.00 42 990.5
20260906143603 23 304 1.6 6.4 0.00 0.00 0.00 47 990.4
20260906142703 23 325 4.8 9.7 0.00 0.00 0.00 47 990.5
20260906141803 22 327 6.4 14.5 0.00 0.00 0.00 46 990.5
20260906140903 22 326 6.4 16.1 0.00 0.00 0.00 47 990.5
20260906140003 22 327 6.4 12.9 0.00 0.00 0.00 48 990.6
20260906135403 21 329 8.0 19.3 0.00 0.00 0.00 48 990.5
20260906134503 21 329 9.7 19.3 0.00 0.00 0.00 47 990.3
20260906133604 21 326 9.7 19.3 0.00 0.00 0.00 49 990.3
20260906132703 20 314 14.5 24.1 0.00 0.00 0.00 49 990.1
20260906131803 20 315 16.1 25.7 0.00 0.00 0.00 51 990.0
20260906130903 18 315 11.3 22.5 0.00 0.00 0.00 54 989.9
20260906130003 18 308 9.7 16.1 0.00 0.00 0.00 57 989.9
20260906125403 17 310 6.4 14.5 0.00 0.00 0.00 58 989.9
20260906124718 18 311 6.4 16.1 0.00 0.00 0.00 57 989.9
20260906123604 18 316 9.7 17.7 0.00 0.00 0.00 56 989.7
20260906122704 18 321 12.9 17.7 0.00 0.00 0.00 55 989.7
20260906122016 18 321 11.3 19.3 0.00 0.00 0.00 56 989.6
20260906120903 17 316 9.7 19.3 0.00 0.00 0.00 59 989.7
20260906120003 16 314 8.0 24.1 0.00 0.00 0.00 63 989.6
20260906115616 16 314 4.8 19.3 0.00 0.00 0.00 66 989.6
20260906114718 15 318 3.2 9.7 0.00 0.00 0.00 68 989.6
20260906113603 15 340 3.2 9.7 0.00 0.00 0.00 70 989.6
20260906112707 15 131 1.6 6.4 0.00 0.00 0.00 71 989.5
20260906112018 15 123 3.2 6.4 0.00 0.00 0.00 71 989.7
20260906110903 15 123 1.6 3.2 0.00 0.00 0.00 70 989.6
20260906110003 16 121 0.0 3.2 0.00 0.00 0.00 70 989.7
20260906105616 16 121 0.0 3.2 0.00 0.00 0.00 69 989.7
20260906104503 16 121 0.0 1.6 0.00 0.00 0.00 68 989.7
20260906103603 16 121 1.6 3.2 0.00 0.00 0.00 66 989.7
20260906102703 16 0 0.0 0.0 0.00 0.00 0.00 65 989.8
20260906102018 17 0 0.0 0.0 0.00 0.00 0.00 64 989.8
20260906100904 17 121 0.0 3.2 0.00 0.00 0.00 61 989.8
20260906100003 17 121 0.0 3.2 0.00 0.00 0.00 60 989.8
20260906095403 18 121 0.0 3.2 0.00 0.00 0.00 58 989.7
20260906094503 17 192 0.0 1.6 0.00 0.00 0.00 60 989.6
20260906093816 17 87 0.0 3.2 0.00 0.00 0.00 62 989.6
20260906092918 17 95 0.0 1.6 0.00 0.00 0.00 61 989.6
20260906092017 17 0 0.0 0.0 0.00 0.00 0.00 61 989.5
20260906090903 16 0 0.0 0.0 0.00 0.00 0.00 66 989.2
20260906090004 16 0 0.0 0.0 0.00 0.00 0.00 68 989.1
20260906085403 15 95 0.0 1.6 0.00 0.00 0.00 69 989.1
20260906084503 16 0 0.0 0.0 0.00 0.00 0.00 70 989.0
20260906083603 15 0 0.0 0.0 0.00 0.00 0.00 70 989.2
20260906082703 15 0 0.0 0.0 0.00 0.00 0.00 70 989.0
20260906081803 16 0 0.0 0.0 0.00 0.00 0.00 69 989.0
20260906080903 16 314 1.6 4.8 0.00 0.00 0.00 68 989.0
20260906080006 17 316 4.8 6.4 0.00 0.00 0.00 63 988.8
20260906075404 17 317 1.6 6.4 0.00 0.00 0.00 62 988.9
20260906074503 16 0 0.0 0.0 0.00 0.00 0.00 69 988.8
20260906073603 16 0 0.0 0.0 0.00 0.00 0.00 69 988.8
20260906072917 15 0 0.0 0.0 0.00 0.00 0.00 70 989.1
20260906071803 16 96 0.0 1.6 0.00 0.00 0.00 70 988.8
20260906070903 16 96 0.0 1.6 0.00 0.00 0.00 67 988.8
20260906070003 17 0 0.0 0.0 0.00 0.00 0.00 66 988.8
20260906065403 17 0 0.0 0.0 0.00 0.00 0.00 66 989.0
20260906064504 17 0 0.0 0.0 0.00 0.00 0.00 67 988.7
20260906063603 17 0 0.0 0.0 0.00 0.00 0.00 65 988.7
20260906062703 17 0 0.0 0.0 0.00 0.00 0.00 65 988.8
20260906061803 17 95 0.0 1.6 0.00 0.00 0.00 65 988.6
20260906060903 17 0 0.0 0.0 0.00 0.00 0.00 64 988.6
20260906060006 20 3 1.6 4.8 0.00 0.00 0.00 56 988.7
20260906055403 20 22 1.6 4.8 0.00 0.00 0.00 56 988.5
20260906054503 20 36 1.6 3.2 0.00 0.00 0.00 54 988.6
20260906053604 20 36 1.6 3.2 0.00 0.00 0.00 53 988.6
20260906052703 21 36 0.0 3.2 0.00 0.00 0.00 51 988.7
20260906052018 21 36 0.0 3.2 0.00 0.00 0.00 52 988.6
20260906051117 21 10 3.2 6.4 0.00 0.00 0.00 50 988.5
20260906050003 21 4 1.6 4.8 0.00 0.00 0.00 54 988.7
20260906045403 21 352 1.6 4.8 0.00 0.00 0.00 54 988.6
20260906044503 21 290 1.6 4.8 0.00 0.00 0.00 52 988.5
20260906043603 21 289 1.6 4.8 0.00 0.00 0.00 51 988.4
20260906042918 21 289 1.6 4.8 0.00 0.00 0.00 51 988.3
20260906041803 22 289 1.6 4.8 0.00 0.00 0.00 51 988.2
20260906040903 22 288 1.6 4.8 0.00 0.00 0.00 51 988.0
20260906040218 22 288 1.6 4.8 0.00 0.00 0.00 50 988.1
20260906035403 23 288 0.0 4.8 0.00 0.00 0.00 48 988.0
20260906034503 23 316 1.6 6.4 0.00 0.00 0.00 47 987.9
20260906033603 23 22 3.2 8.0 0.00 0.00 0.00 43 987.7
20260906032703 23 17 3.2 11.3 0.00 0.00 0.00 44 987.7
20260906031804 23 20 4.8 11.3 0.00 0.00 0.00 45 987.7
20260906030903 23 329 3.2 4.8 0.00 0.00 0.00 47 987.7
20260906030003 23 315 1.6 3.2 0.00 0.00 0.00 48 987.6
20260906025403 23 315 1.6 3.2 0.00 0.00 0.00 47 987.5
20260906024503 23 315 0.0 3.2 0.00 0.00 0.00 47 987.4
20260906023603 24 292 1.6 4.8 0.00 0.00 0.00 45 987.3
20260906022703 25 250 0.0 1.6 0.00 0.00 0.00 45 987.1
20260906021803 25 250 0.0 3.2 0.00 0.00 0.00 42 987.0
20260906020904 25 250 0.0 4.8 0.00 0.00 0.00 40 986.8
20260906020003 26 60 3.2 8.0 0.00 0.00 0.00 39 986.6
20260906015403 27 64 1.6 6.4 0.00 0.00 0.00 37 986.5
20260906014503 27 63 3.2 6.4 0.00 0.00 0.00 33 986.3
20260906013603 28 63 6.4 11.3 0.00 0.00 0.00 32 986.3
20260906012703 28 62 8.0 14.5 0.00 0.00 0.00 32 986.3
20260906011803 28 67 8.0 14.5 0.00 0.00 0.00 31 986.3
20260906010903 28 64 8.0 14.5 0.00 0.00 0.00 31 986.2
20260906010004 28 64 8.0 16.1 0.00 0.00 0.00 30 986.4
20260906005403 28 55 11.3 20.9 0.00 0.00 0.00 31 986.5
20260906004503 29 56 11.3 20.9 0.00 0.00 0.00 32 986.3
20260906003603 30 65 11.3 24.1 0.00 0.00 0.00 30 986.2
20260906002703 30 63 11.3 20.9 0.00 0.00 0.00 30 986.0
20260906002018 30 60 12.9 20.9 0.00 0.00 0.00 30 985.9
20260906000903 30 70 11.3 22.5 0.00 0.00 0.00 30 985.9
20260906000003 30 65 14.5 29.0 0.00 0.00 0.00 30 985.8
20260905235404 31 61 12.9 29.0 0.00 0.00 0.00 30 985.7
20260905234503 31 63 16.1 29.0 0.00 0.00 0.00 31 985.8
20260905233817 31 64 11.3 27.4 0.00 0.00 0.00 31 985.7
20260905232703 31 73 16.1 29.0 0.00 0.00 0.00 28 985.8
20260905232018 32 94 14.5 29.0 0.00 0.00 0.00 28 985.7
20260905231117 32 78 11.3 20.9 0.00 0.00 0.00 27 985.6
20260905230218 31 57 14.5 27.4 0.00 0.00 0.00 27 985.6
20260905225403 32 63 16.1 35.4 0.00 0.00 0.00 26 985.5
20260905224504 32 128 6.4 16.1 0.00 0.00 0.00 23 985.5
20260905223603 32 131 11.3 24.1 0.00 0.00 0.00 23 985.5
20260905222703 32 152 11.3 27.4 0.00 0.00 0.00 24 985.4
20260905221803 32 138 11.3 19.3 0.00 0.00 0.00 26 985.5
20260905220903 32 138 9.7 19.3 0.00 0.00 0.00 26 985.6
20260905220218 32 141 8.0 12.9 0.00 0.00 0.00 25 985.6
20260905215403 32 143 8.0 14.5 0.00 0.00 0.00 22 985.6